SL-14 DEB

Satellite information

Favourite Embed

Satellite Type and Status

DEBRISIN ORBIT

Key statistics

Satellite SL-14 DEB at a glance.

Uptime

12378

Days in orbit

Revolutions

≈ 13.2

Per day

Orbit

LEO

Low Earth Orbit

Inclination

82.5

Latest

Satellite identification and parameters

Extended collection of information and parameters for SL-14 DEB.

Object identification

Identified? True

Debris? True

Object name: SL-14 DEB

International designator: 1991-056AZ

Object number (NORAD): 45311

Object ID (CCSDS): 45311

Country: COMMONWEALTH OF INDEPENDENT STATES (CIS)

Current information (Y/N): Y

RCS size: SMALL

Orbital parameters

Period: 109.195 minutes

Inclination: 82.5497 deg

SMA: 7567.647 km

Apoapsis: 1202.308 km

Periapsis: 1176.716 km

RAAN: 20.2551 deg

Eccentricy: 0.0016909

Argument of periapsis: 258.8808 deg

Mean anomaly: 101.0415 deg

Mean motion: 13.18746918 rev/day

Mean motion (dot): 0.00000167 rev/day2

B* drag term: 0.00039144 1/REarth

Two-line elements (TLE)

Creation date: July 4, 2025, 6:39 p.m.

Reference frame: TEME

Reference center: EARTH

Epoch: July 4, 2025, 2:53 p.m. UTC

TLE line 0: 0 SL-14 DEB

TLE line 1: 1 45311U 91056AZ 25185.62080280 .00000167 00000-0 39144-3 0 9990

TLE line 2: 2 45311 82.5497 20.2551 0016909 258.8808 101.0415 13.18746918257790

Live tracking on map

Real-time ground track for satellite SL-14 DEB.

In-orbit conjunctions

A list of the most updated potential collisions computed for object SL-14 DEB.

Target Orbit TCA Probability of collision Miss distance Type
METEOR 3-5 LEO 2025-03-20 07:21:40 0.0001417797 276.0 (m) PAYLOAD

Associated space launch

Third generation meteorological satellite

SL-14 DEB was lifted into orbit during the mission ‘Tsiklon-3 | Meteor-3 5’, on board a Tsiklon-3 space rocket.

The launch took place on Aug. 15, 1991, 9:15 a.m. from 32/2.

For more information about the launch, click the button.

Launch to space Tsiklon-3 | Meteor-3 5
Tsiklon-3 | Meteor-3 5

Agency: N/A

Status: Launch Successful

Launch date: Aug. 15, 1991, 9:15 a.m. UTC

Rocket: Tsiklon-3

Launch pad: 32/2

Location: Plesetsk Cosmodrome, Russian Federation

...

Latest news about this satellite

There are no fresh news available about this satellite. Check back as we update our databases every day.


Newsletter sign-up

Weekly statistics, charts and insights to help you stay on top of the space industry.